When you browse on this site, cookies collect data to enhance your experience and personalize the content and advertising you see.
Visit our Privacy Policy to learn more. By continuing to use the site, you agree to this use of cookies and data.
  • In Sweden
  • List of Countries
  • For 7 days
  • Water Temperature
  • Weather Map
  • Weather Widgets
  • user-avatar
    Login

    Hourly Weather Panabá

    Today, 25 February, Tuesday

    Time Temperature Precipitation Wind Pressure Humidity
    00:00 +24°C° 0 mm 3 mps 757 mmHg 95%
    01:00 +22°C° 0 mm 3 mps 757 mmHg 96%
    02:00 +22°C° 0 mm 3 mps 757 mmHg 96%
    03:00 +22°C° 0 mm 3 mps 756 mmHg 97%
    04:00 +22°C° 0 mm 3 mps 756 mmHg 96%
    05:00 +23°C° 0 mm 2 mps 757 mmHg 96%
    06:00 +22°C° 0 mm 3 mps 757 mmHg 97%
    07:00 +25°C° 0 mm 3 mps 757 mmHg 87%
    08:00 +27°C° 0 mm 4 mps 758 mmHg 77%
    09:00 +29°C° 0 mm 5 mps 758 mmHg 66%
    10:00 +32°C° 0 mm 5 mps 758 mmHg 59%
    11:00 +34°C° 0 mm 5 mps 757 mmHg 51%
    12:00 +36°C° 0 mm 4 mps 757 mmHg 44%
    13:00 +36°C° 0 mm 4 mps 756 mmHg 42%
    14:00 +36°C° 0 mm 4 mps 755 mmHg 41%
    15:00 +37°C° 0 mm 4 mps 755 mmHg 40%
    16:00 +34°C° 0 mm 4 mps 755 mmHg 50%
    17:00 +31°C° 0 mm 3 mps 755 mmHg 59%
    18:00 +29°C° 0 mm 3 mps 756 mmHg 69%
    19:00 +28°C° 0 mm 3 mps 756 mmHg 74%
    20:00 +27°C° 0 mm 3 mps 757 mmHg 78%
    21:00 +26°C° 0 mm 2 mps 758 mmHg 82%
    22:00 +26°C° 0 mm 2 mps 758 mmHg 85%
    23:00 +25°C° 0 mm 2 mps 758 mmHg 87%

    Tomorrow, 26 February, Wednesday

    Time Temperature Precipitation Wind Pressure Humidity
    00:00 +24°C° 0 mm 2 mps 757 mmHg 90%
    01:00 +24°C° 0 mm 2 mps 757 mmHg 92%
    02:00 +24°C° 0 mm 2 mps 757 mmHg 94%
    03:00 +24°C° 0 mm 2 mps 757 mmHg 95%
    04:00 +24°C° 0 mm 2 mps 757 mmHg 96%
    05:00 +23°C° 0 mm 2 mps 757 mmHg 96%
    06:00 +23°C° 0 mm 1 mps 758 mmHg 97%
    07:00 +26°C° 0 mm 2 mps 758 mmHg 87%
    08:00 +28°C° 0 mm 2 mps 759 mmHg 76%
    09:00 +30°C° 0 mm 3 mps 759 mmHg 66%
    10:00 +33°C° 0 mm 3 mps 759 mmHg 59%
    11:00 +34°C° 0 mm 2 mps 759 mmHg 52%
    12:00 +36°C° 0 mm 2 mps 759 mmHg 45%
    13:00 +34°C° 0.6 mm 3 mps 758 mmHg 53%
    14:00 +32°C° 0.6 mm 5 mps 758 mmHg 60%
    15:00 +29°C° 0.6 mm 6 mps 758 mmHg 68%
    16:00 +28°C° 0.2 mm 7 mps 758 mmHg 73%
    17:00 +26°C° 0.2 mm 8 mps 759 mmHg 77%
    18:00 +24°C° 0.2 mm 9 mps 760 mmHg 81%
    19:00 +24°C° 0.2 mm 9 mps 761 mmHg 81%
    20:00 +23°C° 0.2 mm 9 mps 762 mmHg 81%
    21:00 +22°C° 0.2 mm 8 mps 763 mmHg 81%
    22:00 +22°C° 0.1 mm 8 mps 764 mmHg 80%
    23:00 +22°C° 0.1 mm 7 mps 764 mmHg 79%

    Day after tomorrow, 27 February, Thursday

    Time Temperature Precipitation Wind Pressure Humidity
    00:00 +21°C° 0.1 mm 6 mps 764 mmHg 78%
    01:00 +21°C° 0 mm 6 mps 764 mmHg 76%
    02:00 +21°C° 0 mm 6 mps 764 mmHg 74%
    03:00 +21°C° 0 mm 6 mps 764 mmHg 71%
    04:00 +21°C° 0 mm 6 mps 764 mmHg 70%
    05:00 +21°C° 0 mm 5 mps 765 mmHg 69%
    06:00 +21°C° 0 mm 5 mps 765 mmHg 68%
    07:00 +21°C° 0 mm 5 mps 766 mmHg 66%
    08:00 +22°C° 0 mm 6 mps 766 mmHg 64%
    09:00 +22°C° 0 mm 6 mps 767 mmHg 61%
    10:00 +22°C° 0 mm 6 mps 767 mmHg 60%
    11:00 +23°C° 0 mm 6 mps 766 mmHg 58%
    12:00 +23°C° 0 mm 6 mps 766 mmHg 57%
    13:00 +23°C° 0 mm 6 mps 766 mmHg 58%
    14:00 +22°C° 0 mm 6 mps 766 mmHg 59%
    15:00 +22°C° 0 mm 5 mps 765 mmHg 61%
    16:00 +22°C° 0 mm 5 mps 766 mmHg 62%
    17:00 +21°C° 0 mm 4 mps 766 mmHg 63%
    18:00 +21°C° 0 mm 3 mps 766 mmHg 65%
    19:00 +20°C° 0 mm 3 mps 767 mmHg 67%
    20:00 +20°C° 0 mm 3 mps 767 mmHg 68%
    21:00 +20°C° 0 mm 3 mps 767 mmHg 70%
    22:00 +20°C° 0 mm 3 mps 767 mmHg 71%
    23:00 +19°C° 0 mm 3 mps 767 mmHg 72%

    28 February, Friday

    Time Temperature Precipitation Wind Pressure Humidity
    00:00 +19°C° 0 mm 3 mps 767 mmHg 73%
    01:00 +19°C° 0 mm 3 mps 767 mmHg 74%
    02:00 +19°C° 0 mm 3 mps 766 mmHg 75%
    03:00 +19°C° 0 mm 3 mps 766 mmHg 76%
    04:00 +19°C° 0 mm 3 mps 766 mmHg 75%
    05:00 +18°C° 0 mm 3 mps 766 mmHg 75%
    06:00 +18°C° 0 mm 2 mps 767 mmHg 75%
    07:00 +19°C° 0 mm 3 mps 767 mmHg 70%
    08:00 +20°C° 0 mm 3 mps 768 mmHg 66%
    09:00 +21°C° 0 mm 4 mps 768 mmHg 61%
    10:00 +21°C° 0 mm 4 mps 768 mmHg 60%
    11:00 +22°C° 0 mm 4 mps 768 mmHg 59%
    12:00 +22°C° 0 mm 4 mps 767 mmHg 57%
    13:00 +22°C° 0 mm 4 mps 767 mmHg 57%
    14:00 +22°C° 0 mm 5 mps 767 mmHg 57%
    15:00 +22°C° 0 mm 5 mps 766 mmHg 57%
    16:00 +21°C° 0 mm 5 mps 767 mmHg 59%
    17:00 +21°C° 0 mm 4 mps 767 mmHg 62%
    18:00 +20°C° 0 mm 4 mps 767 mmHg 64%
    19:00 +20°C° 0 mm 3 mps 768 mmHg 65%
    20:00 +20°C° 0 mm 3 mps 768 mmHg 66%
    21:00 +19°C° 0 mm 3 mps 769 mmHg 67%
    22:00 +19°C° 0 mm 3 mps 769 mmHg 67%
    23:00 +19°C° 0 mm 3 mps 769 mmHg 66%

    29 February, Saturday

    Time Temperature Precipitation Wind Pressure Humidity
    00:00 +19°C° 0 mm 3 mps 769 mmHg 66%
    01:00 +19°C° 0 mm 3 mps 768 mmHg 64%
    02:00 +19°C° 0 mm 3 mps 768 mmHg 61%
    03:00 +19°C° 0 mm 3 mps 768 mmHg 59%
    04:00 +19°C° 0 mm 3 mps 768 mmHg 59%
    05:00 +19°C° 0 mm 3 mps 768 mmHg 59%
    06:00 +19°C° 0 mm 3 mps 768 mmHg 59%
    07:00 +20°C° 0 mm 3 mps 768 mmHg 56%
    08:00 +21°C° 0 mm 4 mps 769 mmHg 52%
    09:00 +22°C° 0 mm 5 mps 769 mmHg 49%
    10:00 +23°C° 0 mm 4 mps 769 mmHg 48%
    11:00 +23°C° 0 mm 4 mps 768 mmHg 46%
    12:00 +25°C° 0 mm 4 mps 768 mmHg 44%
    13:00 +25°C° 0 mm 5 mps 767 mmHg 44%
    14:00 +25°C° 0 mm 5 mps 766 mmHg 45%
    15:00 +25°C° 0 mm 5 mps 766 mmHg 45%
    16:00 +23°C° 0 mm 5 mps 766 mmHg 49%
    17:00 +21°C° 0 mm 4 mps 766 mmHg 53%
    18:00 +20°C° 0 mm 3 mps 766 mmHg 56%
    19:00 +19°C° 0 mm 3 mps 767 mmHg 60%
    20:00 +18°C° 0 mm 2 mps 767 mmHg 64%
    21:00 +17°C° 0 mm 2 mps 768 mmHg 67%
    22:00 +17°C° 0 mm 2 mps 767 mmHg 68%
    23:00 +17°C° 0 mm 2 mps 767 mmHg 70%

    1 March, Sunday

    Time Temperature Precipitation Wind Pressure Humidity
    00:00 +17°C° 0 mm 2 mps 766 mmHg 71%
    01:00 +16°C° 0 mm 2 mps 766 mmHg 72%
    02:00 +16°C° 0 mm 2 mps 766 mmHg 73%
    03:00 +16°C° 0 mm 2 mps 765 mmHg 73%
    04:00 +16°C° 0 mm 2 mps 765 mmHg 75%
    05:00 +16°C° 0 mm 2 mps 765 mmHg 76%
    06:00 +15°C° 0 mm 2 mps 765 mmHg 77%
    07:00 +18°C° 0 mm 2 mps 766 mmHg 68%
    08:00 +21°C° 0 mm 3 mps 766 mmHg 60%
    09:00 +25°C° 0 mm 4 mps 766 mmHg 51%
    10:00 +26°C° 0 mm 4 mps 766 mmHg 46%
    11:00 +27°C° 0 mm 4 mps 765 mmHg 42%
    12:00 +29°C° 0 mm 4 mps 764 mmHg 37%
    13:00 +29°C° 0 mm 4 mps 764 mmHg 39%
    14:00 +29°C° 0 mm 5 mps 763 mmHg 41%
    15:00 +29°C° 0 mm 5 mps 762 mmHg 44%
    16:00 +27°C° 0 mm 5 mps 762 mmHg 49%
    17:00 +26°C° 0 mm 5 mps 762 mmHg 54%
    18:00 +23°C° 0 mm 5 mps 762 mmHg 60%
    19:00 +22°C° 0 mm 4 mps 762 mmHg 66%
    20:00 +21°C° 0 mm 4 mps 763 mmHg 71%
    21:00 +19°C° 0 mm 4 mps 763 mmHg 77%
    22:00 +19°C° 0 mm 4 mps 763 mmHg 79%
    23:00 +18°C° 0 mm 3 mps 763 mmHg 81%
    Show more